Location: Newark
(21.1700°N, 79.6500°E)
Time: 19:37:53
(UTC+00:00)

N. Korean satellite - Pass Details

Date: 13 December 2019
Orbit: 454 x 507 km, 97.2° (Epoch: 23 January)

Event Time Altitude Azimuth Distance (km) Brightness Sun altitude
Rises 12:38:50 0° 197° (SSW) 2,596 10.9 -8.9°
Reaches altitude 10° 12:41:20 10° 214° (SW) 1,715 10.3 -9.4°
Maximum altitude 12:44:05 20° 262° (W) 1,226 9.7 -10.0°
Drops below altitude 10° 12:46:49 10° 310° (NW) 1,716 9.7 -10.6°
Sets 12:49:20 0° 328° (NNW) 2,598 10.4 -11.2°
